Weather History for LEJR - March, 2012

Change the Weather History Date:

Tuesday, March 20, 2012

  Actual Average Record
Temperature  
Mean Temperature 57 °F -  
Max Temperature 68 °F 69 °F 78 °F (1998)
Min Temperature 46 °F 47 °F 41 °F (2007)
Degree Days  
Heating Degree Days 8    
Growing Degree Days 7 (Base 50)    
Moisture  
Dew Point 32 °F    
Average Humidity 39    
Maximum Humidity 62    
Minimum Humidity 21    
Precipitation  
Precipitation 0.00 in 0.07 in - ()
Sea Level Pressure  
Sea Level Pressure 30.21 in    
Wind  
Wind Speed 14 mph ()    
Max Wind Speed 22 mph    
Max Gust Speed 29 mph    
Visibility 7.1 miles    
Events      
Averages and records for this station are not official NWS values.
T = Trace of Precipitation, MM = Missing Value Source: Averaged Metar Reports

Daily Weather History Graph

Daily Weather History Graph

Search for Another Location

Airport or City:

Trip Planner

Search our weather history database for the weather conditions in past years. The results will help you decide how hot, cold, wet, or windy it might be!

Date:

Astronomy

Mar. 20, 2012 Rise Set
Actual Time 7:27 AM CET 7:36 PM CET
Civil Twilight 7:01 AM CET 8:02 PM CET
Nautical Twilight 6:31 AM CET 8:32 PM CET
Astronomical Twilight 6:00 AM CET 9:02 PM CET
Moon 6:00 AM CET (3/20) 5:52 PM CET (3/20)
Length of Visible Light 13h 00m
Length of Day
12h 08m
Waning Crescent, 5% of the Moon is Illuminated
Mar 20
Waning Crescent
Mar 22
New
Mar 30
First Quarter
Apr 6
Full
Apr 13
Last Quarter

Hourly Weather History & Observations

Time (CET) Temp. Dew Point Humidity Pressure Visibility Wind Dir Wind Speed Gust Speed Precip Events Conditions
1:00 AM 51 °F 23 °F 21% 30.27 in 19 mi ENE 6.9 mph - -  
5:00 AM 50.0 °F 23.0 °F 35% 30.21 in - NNE 9.2 mph - N/A   Clear
5:30 AM 51.8 °F 23.0 °F 33% 30.21 in - NNE 13.8 mph - N/A   Clear
6:00 AM 50.0 °F 23.0 °F 35% 30.21 in - NNE 12.7 mph - N/A   Clear
6:30 AM 48.2 °F 24.8 °F 40% 30.21 in - North 12.7 mph - N/A   Clear
7:00 AM 48 °F 28 °F 34% 30.23 in 28 mi North 13.8 mph - -  
7:00 AM 48.2 °F 26.6 °F 43% 30.21 in - NNE 12.7 mph - N/A   Clear
7:30 AM 48.2 °F 28.4 °F 46% 30.21 in - NNE 13.8 mph - N/A   Clear
8:00 AM 50.0 °F 33.8 °F 54% 30.21 in - NNE 13.8 mph - N/A   Clear
8:30 AM 51.8 °F 33.8 °F 50% 30.24 in - NNE 17.3 mph - N/A   Clear
9:00 AM 53.6 °F 35.6 °F 51% 30.24 in - NE 19.6 mph - N/A   Clear
9:30 AM 53.6 °F 35.6 °F 51% 30.24 in - NE 18.4 mph - N/A   Clear
10:00 AM 55.4 °F 35.6 °F 47% 30.24 in - NE 18.4 mph - N/A   Clear
10:30 AM 57.2 °F 35.6 °F 44% 30.24 in - NE 21.9 mph - N/A   Clear
11:00 AM 57.2 °F 35.6 °F 44% 30.24 in - NNE 21.9 mph - N/A   Clear
11:30 AM 59.0 °F 35.6 °F 42% 30.24 in - NE 19.6 mph - N/A   Clear
12:00 PM 60.8 °F 35.6 °F 39% 30.24 in - NE 18.4 mph - N/A   Clear
12:30 PM 60.8 °F 32.0 °F 34% 30.24 in 6.2 mi NE 18.4 mph - N/A   Partly Cloudy
1:00 PM 65 °F 37 °F 24% 30.23 in 31 mi NNE 17.3 mph - -   Scattered Clouds
1:00 PM 62.6 °F 32.0 °F 32% 30.21 in 6.2 mi NE 17.3 mph - N/A   Partly Cloudy
1:30 PM 64.4 °F 30.2 °F 28% 30.21 in 6.2 mi NNE 17.3 mph 28.8 mph N/A   Partly Cloudy
2:00 PM 64.4 °F 28.4 °F 26% 30.18 in 6.2 mi NE 18.4 mph - N/A   Partly Cloudy
2:30 PM 64.4 °F 32.0 °F 30% 30.18 in 6.2 mi NNE 21.9 mph - N/A   Partly Cloudy
3:00 PM 66.2 °F 28.4 °F 24% 30.18 in 6.2 mi NE 20.7 mph - N/A   Partly Cloudy
3:30 PM 66.2 °F 26.6 °F 23% 30.15 in 6.2 mi NNE 21.9 mph - N/A   Partly Cloudy
4:00 PM 68.0 °F 30.2 °F 24% 30.15 in 6.2 mi NNE 18.4 mph - N/A   Partly Cloudy
4:30 PM 66.2 °F 30.2 °F 26% 30.15 in 6.2 mi NE 17.3 mph - N/A   Partly Cloudy
5:00 PM 66.2 °F 28.4 °F 24% 30.15 in 6.2 mi NE 18.4 mph - N/A   Partly Cloudy
5:30 PM 64.4 °F 32.0 °F 30% 30.15 in 6.2 mi NE 20.7 mph - N/A   Partly Cloudy
6:00 PM 62.6 °F 32.0 °F 32% 30.18 in 6.2 mi ENE 19.6 mph - N/A   Partly Cloudy
6:30 PM 60.8 °F 30.2 °F 31% 30.18 in 6.2 mi ENE 19.6 mph - N/A   Partly Cloudy
7:00 PM 59 °F 36 °F 31% 30.20 in 37 mi NE 19.6 mph - -   Scattered Clouds
7:00 PM 59.0 °F 33.8 °F 39% 30.18 in 6.2 mi ENE 19.6 mph - N/A   Partly Cloudy
7:30 PM 55.4 °F 33.8 °F 44% 30.21 in - ENE 19.6 mph - N/A   Clear
8:00 PM 53.6 °F 33.8 °F 47% 30.21 in - ENE 17.3 mph - N/A   Clear
8:30 PM 51.8 °F 33.8 °F 50% 30.21 in - ENE 13.8 mph - N/A   Clear
9:00 PM 51.8 °F 35.6 °F 54% 30.21 in - ENE 13.8 mph - N/A   Clear
9:30 PM 50.0 °F 35.6 °F 58% 30.24 in - ENE 10.4 mph - N/A   Clear
10:00 PM 50.0 °F 33.8 °F 54% 30.24 in - ENE 11.5 mph - N/A   Clear
10:30 PM 48.2 °F 35.6 °F 62% 30.24 in - NE 9.2 mph - N/A   Clear
11:00 PM 48.2 °F 35.6 °F 62% 30.24 in - NE 9.2 mph - N/A   Clear